This is the latest recevied weather packets stored in our database for station/object KN6CW-3. If no packets are shown the sender has not sent any weather packets the latest 1 day(s).
| Time | Temp. | Humidity | Pressure | Rain* | Wind** | Luminosity | Snow |
|---|---|---|---|---|---|---|---|
| 1778076033 | 13.33° C | 96% | 1006.8 hPa | 1.52 mm | - | 33 W/m² | - |
| 1778075733 | 13.33° C | 96% | 1006.7 hPa | 1.52 mm | - | 19 W/m² | - |
| 1778073931 | 13.33° C | 95% | 1006.9 hPa | 1.02 mm | - | 35 W/m² | - |
| 1778072730 | 13.89° C | 94% | 1007.2 hPa | 0.51 mm | - | 42 W/m² | - |
| 1778070628 | 14.44° C | 90% | 1007 hPa | 0 mm | - | 51 W/m² | - |
| 1778068526 | 14.44° C | 90% | 1006.9 hPa | 0 mm | - | 70 W/m² | - |
| 1778067625 | 14.44° C | 88% | 1006.9 hPa | 0 mm | - | 40 W/m² | - |
| 1778067325 | 14.44° C | 87% | 1006.9 hPa | 0 mm | - | 56 W/m² | - |
| 1778066724 | 15° C | 85% | 1007 hPa | 0 mm | - | 30 W/m² | - |
| 1778066424 | 15° C | 85% | 1007 hPa | 0 mm | - | 26 W/m² | - |
| 1778065523 | 15.56° C | 81% | 1006.8 hPa | 0 mm | - | 16 W/m² | - |
| 1778065223 | 15.56° C | 81% | 1006.6 hPa | 0 mm | - | 21 W/m² | - |
| 1778064923 | 15.56° C | 80% | 1006.8 hPa | 0 mm | - | 32 W/m² | - |
| 1778064622 | 15.56° C | 80% | 1006.7 hPa | 0 mm | - | 44 W/m² | - |
| 1778063721 | 15.56° C | 80% | 1006.4 hPa | 0 mm | - | 39 W/m² | - |
| 1778063421 | 15.56° C | 80% | 1006.3 hPa | 0 mm | - | 35 W/m² | - |
| 1778062820 | 15.56° C | 79% | 1006.2 hPa | 0 mm | - | 30 W/m² | - |
| 1778062520 | 15° C | 79% | 1006.3 hPa | 0 mm | - | 19 W/m² | - |
| 1778061319 | 15.56° C | 77% | 1006.2 hPa | 0 mm | - | 0 W/m² | - |
| 1778060418 | 15.56° C | 76% | 1006.6 hPa | 0 mm | - | 0 W/m² | - |
| 1778060118 | 15.56° C | 76% | 1006.5 hPa | 0 mm | - | 0 W/m² | - |
| 1778059517 | 15.56° C | 75% | 1006.4 hPa | 0 mm | - | 0 W/m² | - |
| 1778059217 | 15.56° C | 75% | 1006.5 hPa | 0 mm | - | 0 W/m² | - |
| 1778058316 | 15.56° C | 74% | 1006.6 hPa | 0 mm | - | 0 W/m² | - |
| 1778057415 | 16.11° C | 73% | 1006.6 hPa | 0 mm | - | 0 W/m² | - |
* Rain latest hour (hover to see other rain measurements)
** Current wind speed in m/s (hover to see current wind gust speed)